QPF
0.04 0.04 0.04 0.04 0.04 0.04 0.04 0.04 0.04 0.04 0.03 0.02 0.02 0.02 0.02 0.02 0.01 0.02 0.02 0.01 0.00 0.00 0.00 0.01 0.01 0.01 0.02 0.02 0.02 0.02 0.02 0.02 0.03 0.04 0.03 0.03 0.03 0.02 0.02 0.02 0.03 0.04 0.04
0.04 0.04 0.04 0.03 0.04 0.04 0.03 0.03 0.04 0.04 0.03 0.02 0.01 0.01 0.01 0.01 0.01 0.01 0.02 0.01 0.00 0.00 0.00 0.01 0.01 0.01 0.02 0.02 0.02 0.02 0.02 0.02 0.03 0.04 0.05 0.05 0.03 0.02 0.02 0.02 0.02 0.03 0.04
0.06 0.05 0.06 0.04 0.03 0.03 0.02 0.02 0.03 0.03 0.02 0.02 0.01 0.01 0.01 0.01 0.01 0.00 0.00 0.01 0.01 0.00 0.00 0.01 0.01 0.01 0.02 0.02 0.02 0.03 0.02 0.02 0.02 0.03 0.04 0.04 0.04 0.02 0.02 0.02 0.03 0.03 0.03
0.07 0.05 0.05 0.06 0.04 0.02 0.02 0.02 0.02 0.02 0.02 0.01 0.01 0.00 0.00 0.01 0.01 0.00 0.00 0.00 0.00 0.00 0.00 0.01 0.01 0.01 0.01 0.02 0.02 0.03 0.03 0.03 0.03 0.03 0.03 0.03 0.03 0.03 0.02 0.02 0.02 0.02 0.02
0.08 0.07 0.05 0.06 0.06 0.04 0.02 0.02 0.01 0.01 0.01 0.01 0.01 0.00 0.00 0.00 0.00 0.00 0.00 0.00 0.00 0.00 0.00 0.00 0.00 0.00 0.00 0.01 0.02 0.02 0.02 0.02 0.03 0.04 0.04 0.04 0.04 0.04 0.04 0.03 0.03 0.02 0.02
0.08 0.07 0.06 0.05 0.06 0.05 0.03 0.02 0.02 0.02 0.02 0.02 0.01 0.01 0.00 0.00 0.00 0.00 0.00 0.00 0.00 0.00 0.00 0.00 0.00 0.00 0.00 0.01 0.01 0.01 0.01 0.02 0.02 0.03 0.03 0.04 0.04 0.05 0.05 0.05 0.04 0.03 0.03
0.06 0.07 0.06 0.05 0.05 0.05 0.04 0.03 0.02 0.02 0.02 0.02 0.01 0.01 0.00 0.00 0.00 0.00 0.00 0.00 0.00 0.00 0.00 0.00 0.00 0.00 0.00 0.00 0.01 0.00 0.01 0.01 0.02 0.02 0.03 0.03 0.04 0.05 0.05 0.05 0.05 0.05 0.05
0.05 0.06 0.06 0.05 0.04 0.03 0.03 0.03 0.02 0.02 0.02 0.02 0.02 0.01 0.00 0.00 0.00 0.00 0.00 0.00 0.00 0.00 0.00 0.00 0.00 0.00 0.00 0.01 0.01 0.01 0.01 0.01 0.02 0.02 0.03 0.03 0.04 0.04 0.05 0.06 0.07 0.07 0.06
0.05 0.05 0.06 0.05 0.05 0.04 0.03 0.03 0.03 0.02 0.02 0.02 0.02 0.02 0.01 0.00 0.00 0.00 0.00 0.00 0.00 0.00 0.00 0.00 0.00 0.00 0.00 0.00 0.01 0.00 0.00 0.00 0.01 0.01 0.02 0.03 0.03 0.04 0.05 0.06 0.08 0.09 0.10
0.04 0.03 0.04 0.04 0.04 0.04 0.04 0.03 0.03 0.03 0.02 0.02 0.02 0.02 0.01 0.01 0.01 0.00 0.00 0.00 0.00 0.00 0.00 0.00 0.00 0.00 0.00 0.00 0.00 0.00 0.00 0.00 0.01 0.01 0.02 0.02 0.03 0.04 0.06 0.08 0.10 0.14 0.16
0.06 0.03 0.03 0.02 0.02 0.03 0.03 0.02 0.02 0.02 0.02 0.02 0.02 0.02 0.02 0.01 0.00 0.01 0.00 0.00 0.00 0.00 0.00 0.00 0.00 0.00 0.00 0.00 0.00 0.00 0.00 0.00 0.00 0.01 0.02 0.02 0.03 0.04 0.04 0.06 0.08 0.10 0.11
0.08 0.05 0.03 0.02 0.02 0.02 0.02 0.02 0.02 0.03 0.04 0.03 0.02 0.02 0.02 0.02 0.01 0.01 0.00 0.00 0.00 0.00 0.00 0.00 0.00 0.01 0.01 0.00 0.00 0.00 0.00 0.00 0.00 0.01 0.01 0.02 0.03 0.03 0.04 0.05 0.07 0.07 0.08
0.07 0.05 0.04 0.03 0.03 0.03 0.02 0.02 0.02 0.02 0.04 0.05 0.05 0.03 0.03 0.02 0.02 0.01 0.01 0.01 0.01 0.01 0.01 0.00 0.00 0.00 0.00 0.00 0.00 0.00 0.00 0.00 0.00 0.01 0.01 0.02 0.02 0.03 0.04 0.05 0.05 0.06 0.07
0.06 0.04 0.04 0.03 0.02 0.02 0.02 0.02 0.01 0.02 0.02 0.03 0.04 0.04 0.03 0.02 0.02 0.02 0.02 0.01 0.01 0.01 0.01 0.01 0.00 0.00 0.00 0.00 0.00 0.00 0.00 0.00 0.01 0.01 0.02 0.02 0.02 0.02 0.03 0.04 0.06 0.06 0.05
0.05 0.04 0.04 0.04 0.03 0.02 0.02 0.02 0.01 0.01 0.01 0.01 0.02 0.03 0.03 0.02 0.02 0.02 0.02 0.02 0.02 0.02 0.01 0.01 0.00 0.00 0.00 0.00 0.00 0.00 0.00 0.01 0.01 0.01 0.01 0.01 0.01 0.02 0.02 0.04 0.06 0.07 0.06
0.03 0.04 0.04 0.04 0.04 0.03 0.02 0.02 0.01 0.01 0.01 0.01 0.01 0.01 0.02 0.01 0.01 0.01 0.02 0.02 0.02 0.02 0.02 0.01 0.01 0.00 0.00 0.00 0.00 0.00 0.00 0.01 0.01 0.01 0.01 0.01 0.01 0.01 0.01 0.02 0.04 0.07 0.08
0.01 0.02 0.02 0.02 0.03 0.02 0.02 0.02 0.01 0.01 0.01 0.00 0.00 0.01 0.01 0.01 0.01 0.01 0.01 0.01 0.02 0.02 0.02 0.01 0.01 0.01 0.00 0.00 0.01 0.01 0.01 0.01 0.01 0.01 0.01 0.01 0.01 0.01 0.01 0.02 0.02 0.03 0.04
0.01 0.01 0.01 0.01 0.01 0.01 0.01 0.01 0.01 0.01 0.00 0.00 0.00 0.00 0.00 0.00 0.01 0.01 0.01 0.01 0.01 0.02 0.02 0.01 0.01 0.01 0.01 0.01 0.01 0.01 0.01 0.01 0.01 0.01 0.01 0.01 0.01 0.01 0.01 0.01 0.02 0.03 0.03
0.00 0.01 0.01 0.01 0.01 0.01 0.01 0.00 0.00 0.00 0.00 0.00 0.00 0.00 0.00 0.00 0.00 0.00 0.00 0.01 0.01 0.01 0.02 0.01 0.01 0.01 0.01 0.01 0.01 0.01 0.01 0.01 0.01 0.01 0.01 0.01 0.01 0.01 0.01 0.01 0.01 0.02 0.03
0.00 0.00 0.00 0.01 0.01 0.01 0.01 0.00 0.00 0.00 0.00 0.00 0.00 0.00 0.00 0.00 0.00 0.00 0.00 0.00 0.01 0.01 0.01 0.01 0.01 0.01 0.01 0.01 0.01 0.01 0.01 0.01 0.01 0.01 0.01 0.01 0.01 0.01 0.01 0.01 0.01 0.01 0.02
0.00 0.00 0.00 0.00 0.00 0.01 0.01 0.01 0.00 0.00 0.00 0.00 0.00 0.00 0.00 0.00 0.00 0.00 0.00 0.00 0.00 0.00 0.01 0.01 0.01 0.01 0.01 0.01 0.01 0.01 0.01 0.01 0.01 0.01 0.01 0.01 0.01 0.01 0.01 0.01 0.01 0.01 0.01
0.00 0.00 0.00 0.00 0.00 0.00 0.00 0.00 0.00 0.00 0.00 0.00 0.00 0.00 0.00 0.00 0.00 0.00 0.00 0.00 0.00 0.01 0.01 0.01 0.01 0.01 0.01 0.01 0.01 0.01 0.01 0.01 0.01 0.01 0.01 0.01 0.01 0.01 0.01 0.01 0.01 0.01 0.01
0.00 0.00 0.00 0.00 0.00 0.00 0.00 0.00 0.00 0.00 0.00 0.00 0.00 0.00 0.00 0.00 0.00 0.00 0.00 0.00 0.00 0.01 0.01 0.01 0.01 0.00 0.00 0.00 0.01 0.01 0.01 0.01 0.01 0.01 0.01 0.01 0.01 0.01 0.02 0.01 0.01 0.01 0.01
0.00 0.00 0.00 0.00 0.00 0.00 0.00 0.00 0.00 0.00 0.00 0.00 0.00 0.00 0.00 0.00 0.00 0.00 0.00 0.00 0.00 0.00 0.00 0.00 0.00 0.00 0.00 0.01 0.01 0.01 0.01 0.01 0.01 0.01 0.01 0.01 0.01 0.01 0.01 0.01 0.01 0.01 0.01
0.00 0.00 0.00 0.00 0.00 0.00 0.00 0.00 0.00 0.00 0.00 0.00 0.00 0.00 0.00 0.00 0.00 0.00 0.00 0.00 0.00 0.00 0.00 0.00 0.00 0.01 0.01 0.01 0.01 0.01 0.01 0.02 0.01 0.01 0.01 0.01 0.01 0.01 0.01 0.01 0.00 0.01 0.01
0.00 0.00 0.00 0.00 0.00 0.00 0.00 0.00 0.00 0.00 0.00 0.00 0.00 0.00 0.00 0.00 0.00 0.00 0.00 0.00 0.00 0.00 0.00 0.00 0.00 0.00 0.00 0.00 0.01 0.01 0.02 0.02 0.02 0.02 0.01 0.01 0.02 0.02 0.02 0.01 0.00 0.00 0.01
MSLP
1018.97 1018.83 1018.65 1018.45 1018.27 1018.12 1018.00 1017.89 1017.76 1017.58 1017.35 1017.04 1016.70 1016.35 1016.03 1015.78 1015.62 1015.56 1015.56 1015.59 1015.61 1015.58 1015.48 1015.31 1015.08 1014.81 1014.53 1014.27 1014.04 1013.83 1013.64 1013.46 1013.27 1013.09 1012.92 1012.76 1012.64 1012.55 1012.50 1012.49 1012.51 1012.53 1012.57
1019.23 1019.07 1018.87 1018.66 1018.47 1018.31 1018.18 1018.06 1017.92 1017.73 1017.48 1017.17 1016.82 1016.47 1016.16 1015.92 1015.76 1015.68 1015.66 1015.66 1015.66 1015.60 1015.49 1015.32 1015.10 1014.86 1014.60 1014.36 1014.12 1013.90 1013.67 1013.44 1013.20 1012.95 1012.71 1012.49 1012.31 1012.17 1012.08 1012.03 1012.00 1011.99 1011.98
1019.50 1019.34 1019.13 1018.93 1018.74 1018.59 1018.46 1018.33 1018.17 1017.96 1017.70 1017.38 1017.03 1016.67 1016.35 1016.10 1015.91 1015.79 1015.73 1015.69 1015.64 1015.56 1015.44 1015.28 1015.09 1014.89 1014.69 1014.49 1014.28 1014.06 1013.81 1013.53 1013.22 1012.90 1012.58 1012.29 1012.05 1011.86 1011.73 1011.64 1011.58 1011.52 1011.48
1019.76 1019.60 1019.41 1019.23 1019.06 1018.92 1018.79 1018.66 1018.49 1018.27 1017.99 1017.66 1017.30 1016.93 1016.60 1016.31 1016.09 1015.92 1015.79 1015.68 1015.58 1015.46 1015.33 1015.19 1015.05 1014.92 1014.78 1014.65 1014.49 1014.28 1014.03 1013.71 1013.34 1012.94 1012.54 1012.17 1011.86 1011.62 1011.44 1011.32 1011.23 1011.15 1011.06
1019.96 1019.82 1019.66 1019.51 1019.38 1019.26 1019.15 1019.01 1018.83 1018.60 1018.31 1017.98 1017.61 1017.24 1016.89 1016.58 1016.31 1016.08 1015.88 1015.70 1015.53 1015.37 1015.22 1015.10 1015.01 1014.94 1014.89 1014.82 1014.72 1014.55 1014.29 1013.94 1013.52 1013.04 1012.56 1012.12 1011.74 1011.45 1011.23 1011.08 1010.97 1010.86 1010.74
1020.10 1019.98 1019.86 1019.75 1019.66 1019.57 1019.48 1019.35 1019.17 1018.94 1018.65 1018.31 1017.95 1017.59 1017.23 1016.90 1016.60 1016.31 1016.05 1015.79 1015.55 1015.34 1015.18 1015.06 1015.00 1014.99 1015.01 1015.01 1014.97 1014.83 1014.58 1014.21 1013.74 1013.20 1012.65 1012.14 1011.70 1011.36 1011.11 1010.92 1010.78 1010.63 1010.47
1020.14 1020.06 1019.98 1019.92 1019.87 1019.82 1019.75 1019.64 1019.47 1019.25 1018.97 1018.65 1018.31 1017.97 1017.63 1017.30 1016.98 1016.66 1016.33 1016.01 1015.71 1015.45 1015.24 1015.12 1015.07 1015.10 1015.16 1015.22 1015.22 1015.11 1014.87 1014.49 1013.98 1013.40 1012.80 1012.24 1011.75 1011.36 1011.06 1010.85 1010.66 1010.47 1010.25
1020.13 1020.07 1020.03 1020.02 1020.01 1020.00 1019.95 1019.86 1019.71 1019.51 1019.26 1018.98 1018.68 1018.38 1018.08 1017.78 1017.46 1017.12 1016.76 1016.39 1016.03 1015.71 1015.45 1015.30 1015.24 1015.27 1015.35 1015.43 1015.46 1015.37 1015.14 1014.76 1014.24 1013.64 1013.01 1012.41 1011.88 1011.45 1011.12 1010.85 1010.62 1010.36 1010.06
1020.06 1020.03 1020.02 1020.05 1020.08 1020.10 1020.08 1020.01 1019.89 1019.71 1019.51 1019.28 1019.04 1018.81 1018.57 1018.31 1018.02 1017.69 1017.31 1016.90 1016.49 1016.11 1015.80 1015.59 1015.50 1015.50 1015.57 1015.64 1015.67 1015.59 1015.37 1015.00 1014.49 1013.89 1013.26 1012.65 1012.10 1011.64 1011.27 1010.95 1010.65 1010.32 1009.93
1019.97 1019.95 1019.98 1020.02 1020.08 1020.12 1020.13 1020.08 1019.99 1019.85 1019.70 1019.53 1019.36 1019.20 1019.03 1018.83 1018.59 1018.28 1017.91 1017.48 1017.03 1016.60 1016.23 1015.95 1015.80 1015.75 1015.77 1015.82 1015.83 1015.75 1015.55 1015.20 1014.72 1014.15 1013.54 1012.94 1012.40 1011.92 1011.51 1011.14 1010.77 1010.35 1009.86
1019.87 1019.86 1019.89 1019.95 1020.02 1020.07 1020.09 1020.07 1020.00 1019.91 1019.80 1019.69 1019.59 1019.50 1019.41 1019.28 1019.09 1018.82 1018.46 1018.03 1017.56 1017.09 1016.66 1016.32 1016.09 1015.98 1015.94 1015.94 1015.92 1015.84 1015.64 1015.33 1014.89 1014.38 1013.82 1013.26 1012.74 1012.26 1011.83 1011.41 1010.97 1010.47 1009.89
1019.74 1019.73 1019.76 1019.82 1019.89 1019.95 1019.97 1019.96 1019.92 1019.86 1019.79 1019.73 1019.69 1019.66 1019.63 1019.56 1019.43 1019.20 1018.88 1018.46 1017.99 1017.49 1017.03 1016.63 1016.34 1016.15 1016.04 1015.99 1015.94 1015.84 1015.66 1015.38 1015.00 1014.55 1014.06 1013.57 1013.09 1012.63 1012.19 1011.74 1011.25 1010.68 1010.02
1019.58 1019.56 1019.57 1019.62 1019.67 1019.72 1019.75 1019.74 1019.71 1019.67 1019.63 1019.61 1019.61 1019.63 1019.64 1019.62 1019.54 1019.36 1019.08 1018.70 1018.24 1017.75 1017.27 1016.84 1016.50 1016.25 1016.08 1015.97 1015.88 1015.76 1015.59 1015.35 1015.04 1014.66 1014.26 1013.83 1013.41 1012.99 1012.57 1012.10 1011.58 1010.97 1010.26
1019.37 1019.32 1019.30 1019.32 1019.36 1019.39 1019.41 1019.41 1019.39 1019.35 1019.33 1019.33 1019.35 1019.39 1019.43 1019.45 1019.41 1019.28 1019.04 1018.71 1018.30 1017.85 1017.38 1016.95 1016.58 1016.29 1016.08 1015.92 1015.78 1015.65 1015.48 1015.27 1015.01 1014.71 1014.38 1014.03 1013.68 1013.31 1012.91 1012.46 1011.94 1011.33 1010.61
1019.09 1019.00 1018.95 1018.94 1018.95 1018.97 1018.98 1018.97 1018.95 1018.93 1018.90 1018.90 1018.93 1018.98 1019.03 1019.06 1019.05 1018.97 1018.80 1018.54 1018.19 1017.80 1017.38 1016.98 1016.62 1016.31 1016.06 1015.86 1015.69 1015.53 1015.36 1015.16 1014.94 1014.69 1014.43 1014.15 1013.86 1013.55 1013.19 1012.78 1012.29 1011.71 1011.02
1018.75 1018.62 1018.53 1018.49 1018.48 1018.48 1018.49 1018.48 1018.46 1018.43 1018.41 1018.40 1018.41 1018.45 1018.49 1018.54 1018.55 1018.51 1018.41 1018.22 1017.97 1017.66 1017.32 1016.97 1016.64 1016.34 1016.08 1015.84 1015.64 1015.44 1015.25 1015.05 1014.84 1014.63 1014.41 1014.19 1013.95 1013.69 1013.39 1013.03 1012.60 1012.08 1011.47
1018.40 1018.22 1018.10 1018.03 1018.01 1018.00 1018.00 1017.99 1017.97 1017.94 1017.90 1017.88 1017.87 1017.89 1017.92 1017.97 1018.00 1018.00 1017.95 1017.85 1017.69 1017.48 1017.23 1016.96 1016.68 1016.40 1016.14 1015.88 1015.65 1015.42 1015.19 1014.97 1014.76 1014.55 1014.35 1014.16 1013.96 1013.75 1013.50 1013.20 1012.83 1012.40 1011.89
1018.06 1017.86 1017.72 1017.63 1017.59 1017.58 1017.58 1017.57 1017.55 1017.52 1017.47 1017.43 1017.40 1017.39 1017.40 1017.43 1017.47 1017.50 1017.51 1017.48 1017.41 1017.29 1017.14 1016.94 1016.72 1016.48 1016.23 1015.97 1015.70 1015.44 1015.18 1014.93 1014.69 1014.47 1014.27 1014.09 1013.91 1013.73 1013.52 1013.28 1012.99 1012.64 1012.24
1017.81 1017.59 1017.43 1017.33 1017.29 1017.27 1017.27 1017.27 1017.25 1017.21 1017.15 1017.09 1017.03 1016.99 1016.98 1016.99 1017.02 1017.07 1017.11 1017.14 1017.14 1017.10 1017.02 1016.90 1016.74 1016.54 1016.30 1016.05 1015.77 1015.48 1015.19 1014.92 1014.66 1014.42 1014.21 1014.02 1013.84 1013.67 1013.49 1013.29 1013.06 1012.80 1012.51
1017.66 1017.43 1017.27 1017.17 1017.12 1017.10 1017.10 1017.09 1017.07 1017.02 1016.95 1016.87 1016.79 1016.72 1016.67 1016.66 1016.67 1016.71 1016.76 1016.81 1016.85 1016.86 1016.84 1016.78 1016.67 1016.51 1016.31 1016.07 1015.80 1015.51 1015.21 1014.92 1014.64 1014.39 1014.17 1013.97 1013.79 1013.62 1013.45 1013.28 1013.09 1012.89 1012.68
1017.61 1017.38 1017.22 1017.12 1017.07 1017.05 1017.04 1017.03 1016.99 1016.94 1016.85 1016.75 1016.64 1016.54 1016.46 1016.41 1016.39 1016.40 1016.43 1016.48 1016.52 1016.56 1016.56 1016.54 1016.46 1016.34 1016.18 1015.98 1015.74 1015.47 1015.19 1014.92 1014.65 1014.40 1014.18 1013.97 1013.78 1013.61 1013.43 1013.27 1013.10 1012.94 1012.78
1017.63 1017.42 1017.26 1017.16 1017.10 1017.07 1017.04 1017.02 1016.97 1016.90 1016.80 1016.68 1016.54 1016.42 1016.30 1016.21 1016.14 1016.11 1016.10 1016.11 1016.13 1016.15 1016.16 1016.14 1016.10 1016.02 1015.90 1015.74 1015.56 1015.35 1015.13 1014.90 1014.67 1014.45 1014.24 1014.04 1013.85 1013.66 1013.48 1013.30 1013.14 1012.98 1012.84
1017.67 1017.47 1017.32 1017.21 1017.14 1017.09 1017.05 1017.00 1016.94 1016.85 1016.74 1016.61 1016.46 1016.31 1016.16 1016.02 1015.91 1015.82 1015.75 1015.70 1015.68 1015.66 1015.64 1015.62 1015.59 1015.54 1015.47 1015.39 1015.28 1015.15 1015.01 1014.86 1014.69 1014.53 1014.35 1014.18 1013.99 1013.80 1013.61 1013.41 1013.22 1013.05 1012.91
1017.67 1017.48 1017.33 1017.21 1017.12 1017.05 1016.99 1016.92 1016.85 1016.75 1016.63 1016.50 1016.35 1016.18 1016.01 1015.84 1015.68 1015.53 1015.40 1015.29 1015.20 1015.12 1015.07 1015.03 1015.00 1014.98 1014.96 1014.95 1014.92 1014.89 1014.85 1014.79 1014.72 1014.62 1014.50 1014.36 1014.20 1014.01 1013.81 1013.60 1013.38 1013.18 1013.01
1017.58 1017.40 1017.24 1017.11 1017.01 1016.92 1016.84 1016.76 1016.67 1016.58 1016.47 1016.34 1016.20 1016.04 1015.86 1015.67 1015.48 1015.28 1015.09 1014.91 1014.75 1014.62 1014.51 1014.45 1014.42 1014.42 1014.44 1014.49 1014.55 1014.61 1014.67 1014.71 1014.73 1014.71 1014.66 1014.57 1014.43 1014.26 1014.06 1013.83 1013.60 1013.36 1013.15
1017.38 1017.21 1017.05 1016.91 1016.79 1016.69 1016.59 1016.51 1016.43 1016.34 1016.25 1016.15 1016.03 1015.88 1015.72 1015.52 1015.31 1015.08 1014.84 1014.61 1014.39 1014.21 1014.06 1013.96 1013.92 1013.93 1013.98 1014.08 1014.21 1014.34 1014.49 1014.61 1014.71 1014.76 1014.77 1014.73 1014.63 1014.49 1014.29 1014.07 1013.82 1013.57 1013.33
Thickness
5676 5676 5676 5675 5675 5675 5674 5674 5675 5676 5677 5677 5676 5676 5675 5675 5674 5673 5671 5670 5669 5668 5667 5666 5665 5664 5663 5662 5661 5660 5659 5658 5657 5656 5655 5655 5654 5653 5652 5652 5651 5651 5650
5670 5670 5669 5669 5670 5669 5669 5669 5669 5670 5671 5671 5671 5670 5670 5669 5668 5667 5665 5664 5663 5661 5660 5659 5658 5657 5656 5656 5655 5653 5652 5651 5650 5649 5649 5648 5648 5647 5646 5645 5645 5645 5644
5664 5664 5663 5663 5664 5664 5664 5663 5664 5664 5664 5665 5664 5664 5664 5663 5662 5661 5659 5658 5657 5655 5654 5653 5652 5651 5650 5649 5648 5647 5646 5645 5644 5643 5642 5641 5641 5640 5640 5639 5639 5638 5638
5657 5658 5657 5656 5657 5658 5658 5657 5657 5656 5656 5657 5657 5657 5657 5656 5655 5654 5653 5652 5650 5649 5647 5646 5645 5644 5643 5642 5641 5640 5639 5638 5637 5636 5635 5635 5634 5633 5633 5633 5632 5631 5631
5650 5651 5651 5650 5651 5651 5651 5650 5649 5649 5648 5648 5649 5650 5650 5649 5649 5648 5646 5645 5644 5642 5640 5639 5637 5636 5635 5634 5633 5632 5632 5631 5630 5629 5629 5628 5627 5626 5626 5626 5625 5624 5624
5642 5643 5644 5643 5643 5643 5643 5642 5641 5641 5640 5641 5642 5642 5642 5643 5642 5641 5639 5638 5636 5635 5633 5631 5630 5628 5627 5626 5625 5624 5624 5623 5623 5622 5622 5621 5620 5620 5619 5619 5618 5617 5617
5634 5635 5635 5635 5635 5635 5634 5634 5633 5632 5632 5633 5632 5632 5635 5636 5635 5634 5632 5630 5629 5628 5626 5624 5623 5621 5619 5618 5616 5616 5615 5615 5615 5615 5614 5614 5613 5613 5612 5611 5611 5610 5609
5627 5628 5627 5627 5627 5627 5626 5625 5624 5623 5623 5623 5621 5621 5620 5623 5624 5626 5624 5622 5621 5620 5618 5616 5614 5613 5611 5610 5608 5607 5607 5606 5607 5607 5606 5606 5606 5605 5604 5603 5603 5602 5601
5620 5620 5619 5618 5618 5618 5617 5616 5615 5614 5612 5612 5612 5611 5609 5609 5610 5614 5615 5614 5612 5611 5609 5608 5606 5604 5603 5601 5600 5599 5597 5597 5597 5597 5597 5597 5597 5596 5596 5595 5595 5594 5593
5612 5611 5610 5610 5610 5609 5608 5608 5607 5606 5605 5603 5603 5603 5601 5601 5600 5601 5603 5604 5603 5602 5601 5600 5598 5596 5594 5593 5591 5590 5588 5588 5588 5588 5587 5587 5587 5587 5587 5586 5586 5585 5584
5604 5603 5602 5602 5601 5601 5600 5599 5599 5598 5597 5595 5594 5593 5593 5593 5593 5590 5591 5592 5593 5593 5592 5590 5589 5587 5585 5583 5582 5580 5579 5578 5578 5577 5577 5577 5576 5576 5576 5576 5575 5574 5574
5596 5595 5595 5594 5593 5593 5592 5591 5590 5590 5588 5587 5586 5584 5583 5582 5582 5581 5581 5582 5582 5583 5583 5582 5580 5578 5576 5574 5572 5570 5569 5568 5567 5566 5566 5566 5565 5564 5564 5565 5564 5564 5563
5587 5587 5587 5586 5585 5585 5583 5583 5582 5581 5580 5579 5578 5576 5575 5574 5572 5571 5570 5570 5572 5573 5573 5572 5570 5568 5566 5563 5561 5560 5559 5557 5556 5555 5555 5554 5553 5553 5552 5553 5553 5553 5553
5579 5579 5578 5578 5577 5576 5575 5574 5573 5572 5571 5570 5569 5567 5565 5564 5563 5561 5559 5558 5559 5560 5562 5561 5560 5558 5555 5553 5551 5549 5548 5547 5545 5544 5543 5543 5542 5541 5541 5541 5541 5541 5541
5571 5570 5569 5568 5567 5567 5566 5565 5564 5563 5561 5560 5558 5557 5556 5555 5554 5552 5550 5548 5546 5546 5550 5551 5548 5547 5544 5542 5540 5538 5537 5536 5535 5533 5532 5531 5531 5530 5530 5529 5529 5530 5530
5562 5560 5560 5559 5559 5558 5557 5556 5554 5553 5551 5550 5549 5548 5546 5545 5543 5541 5539 5537 5535 5533 5535 5539 5537 5535 5533 5531 5529 5527 5526 5525 5524 5523 5522 5520 5519 5519 5519 5518 5518 5518 5517
5553 5552 5551 5551 5550 5548 5548 5546 5545 5543 5541 5540 5539 5538 5536 5534 5532 5530 5528 5527 5525 5522 5521 5524 5524 5523 5521 5519 5518 5516 5515 5514 5513 5511 5511 5510 5509 5508 5507 5507 5506 5506 5505
5545 5543 5542 5541 5540 5539 5538 5537 5535 5534 5532 5530 5529 5527 5526 5524 5522 5520 5518 5516 5514 5512 5509 5510 5511 5510 5509 5507 5506 5504 5503 5502 5501 5500 5500 5499 5498 5497 5497 5496 5495 5494 5494
5536 5535 5533 5532 5531 5530 5528 5526 5525 5524 5522 5521 5519 5517 5516 5513 5511 5508 5507 5505 5503 5502 5499 5498 5498 5497 5496 5495 5494 5493 5491 5490 5489 5489 5488 5488 5487 5486 5485 5484 5483 5483 5483
5526 5525 5524 5523 5522 5520 5518 5516 5514 5513 5512 5511 5510 5507 5505 5503 5500 5498 5496 5494 5492 5490 5488 5487 5486 5485 5483 5483 5481 5479 5479 5478 5477 5477 5477 5476 5475 5474 5474 5473 5472 5472 5471
5517 5516 5515 5513 5511 5509 5508 5505 5504 5503 5501 5500 5499 5497 5495 5492 5490 5488 5486 5483 5481 5479 5477 5475 5474 5473 5471 5469 5468 5467 5466 5466 5466 5465 5464 5464 5463 5463 5462 5461 5461 5460 5460
5506 5505 5504 5503 5501 5500 5498 5496 5493 5492 5490 5489 5487 5485 5483 5481 5479 5478 5476 5474 5471 5468 5466 5464 5463 5461 5461 5459 5457 5455 5453 5452 5453 5453 5451 5451 5450 5451 5450 5449 5449 5449 5449
5494 5493 5492 5491 5490 5489 5487 5485 5482 5480 5478 5477 5475 5473 5472 5470 5468 5466 5464 5463 5460 5458 5456 5453 5452 5451 5450 5448 5446 5443 5441 5439 5440 5440 5437 5440 5439 5439 5439 5439 5438 5438 5438
5482 5482 5481 5480 5479 5478 5476 5474 5471 5468 5467 5465 5463 5461 5459 5458 5456 5453 5451 5450 5449 5447 5446 5444 5442 5442 5440 5438 5435 5433 5430 5429 5428 5427 5425 5426 5428 5427 5429 5428 5427 5426 5426
5471 5470 5469 5468 5467 5467 5465 5462 5459 5456 5455 5453 5452 5450 5447 5445 5444 5441 5439 5438 5437 5437 5435 5433 5432 5431 5429 5427 5424 5420 5417 5415 5416 5416 5413 5412 5415 5414 5416 5416 5416 5415 5414
5459 5458 5458 5457 5456 5455 5453 5451 5448 5444 5443 5442 5440 5438 5436 5434 5432 5430 5427 5425 5425 5425 5423 5422 5421 5420 5418 5415 5412 5409 5406 5403 5403 5404 5404 5400 5400 5399 5401 5405 5404 5402 5401